This is the latest recevied weather packets stored in our database for station/object M0HPP-13. If no packets are shown the sender has not sent any weather packets the latest 10 day(s).
| Time | Temp. | Humidity | Pressure | Rain* | Wind** | Luminosity | Snow |
|---|---|---|---|---|---|---|---|
| 1787590686 | 16.11° C | 81% | 1019.5 hPa | 0 mm | - | 192 W/m² | - |
| 1787590086 | 16.11° C | 82% | 1019.6 hPa | 0 mm | - | 210 W/m² | - |
| 1787589486 | 16.11° C | 81% | 1019.7 hPa | 0 mm | - | 123 W/m² | - |
| 1787588886 | 16.11° C | 80% | 1019.7 hPa | 0 mm | - | 138 W/m² | - |
| 1787588286 | 16.67° C | 80% | 1019.9 hPa | 0 mm | - | 277 W/m² | - |
| 1787587686 | 16.67° C | 81% | 1020 hPa | 0 mm | - | 293 W/m² | - |
| 1787587086 | 16.11° C | 81% | 1020 hPa | 0 mm | - | 256 W/m² | - |
| 1787586486 | 16.11° C | 80% | 1020 hPa | 0 mm | - | 318 W/m² | - |
| 1787585886 | 16.67° C | 80% | 1020.1 hPa | 0 mm | - | 335 W/m² | - |
| 1787584086 | 16.11° C | 79% | 1020.4 hPa | 0 mm | - | 354 W/m² | - |
| 1787583486 | 16.67° C | 77% | 1020.5 hPa | 0 mm | - | 384 W/m² | - |
| 1787582886 | 16.67° C | 76% | 1020.7 hPa | 0 mm | - | 404 W/m² | - |
| 1787582286 | 16.67° C | 76% | 1020.7 hPa | 0 mm | - | 396 W/m² | - |
| 1787581686 | 16.67° C | 76% | 1020.8 hPa | 0 mm | - | 278 W/m² | - |
| 1787581086 | 16.67° C | 77% | 1020.7 hPa | 0 mm | - | 432 W/m² | - |
| 1787580486 | 16.11° C | 77% | 1020.9 hPa | 0 mm | - | 447 W/m² | - |
| 1787579886 | 16.11° C | 79% | 1020.9 hPa | 0 mm | - | 458 W/m² | - |
| 1787579286 | 16.11° C | 84% | 1021 hPa | 0 mm | - | 465 W/m² | - |
| 1787578686 | 15.56° C | 87% | 1021.1 hPa | 0 mm | - | 470 W/m² | - |
| 1787578086 | 15.56° C | 87% | 1021.2 hPa | 0 mm | - | 475 W/m² | - |
| 1787577486 | 15.56° C | 88% | 1021.3 hPa | 0 mm | - | 481 W/m² | - |
| 1787576886 | 15.56° C | 87% | 1021.4 hPa | 0 mm | - | 488 W/m² | - |
| 1787576286 | 15.56° C | 87% | 1021.5 hPa | 0 mm | - | 489 W/m² | - |
| 1787575686 | 15.56° C | 89% | 1021.4 hPa | 0 mm | - | 491 W/m² | - |
| 1787575086 | 15.56° C | 89% | 1021.5 hPa | 0 mm | - | 489 W/m² | - |
* Rain latest hour (hover to see other rain measurements)
** Current wind speed in m/s (hover to see current wind gust speed)